Wind_Speed
30 32 34 35 37 39 40 42 44 46 49 49 53 57 59 59 62 65 70 71 73 76 81 84 90 91 92 93 90 90 90 89 90 87 91 90 87 89 90 89 93 96 96 95 93 91 86 84 81 84 84 77 75 79
35 37 38 40 42 43 45 46 48 50 50 55 56 60 61 65 68 71 72 77 80 86 89 94 95 91 87 84 81 81 83 83 82 81 80 81 84 85 86 86 93 89 92 93 92 92 87 85 84 88 87 85 84 84
42 43 44 46 47 47 48 49 50 52 56 57 60 63 65 69 72 74 78 82 86 92 88 79 75 71 67 64 62 62 61 61 62 61 63 64 66 69 70 71 76 76 81 80 82 84 86 87 85 89 90 85 85 87
46 47 49 49 50 49 49 51 53 56 57 61 63 66 69 71 74 79 83 87 87 76 68 61 61 56 52 50 49 50 50 50 52 49 50 52 53 56 58 60 62 66 68 70 70 70 73 76 78 82 84 87 86 88
48 48 49 50 50 51 53 55 56 56 61 63 66 66 67 72 77 83 85 82 68 60 53 48 44 38 37 34 33 33 35 37 38 37 36 37 36 32 36 44 47 52 47 47 49 53 57 61 66 71 71 73 77 79
48 49 51 52 52 53 53 54 57 60 62 62 63 65 70 73 78 83 79 64 56 49 44 40 36 34 33 33 32 31 31 32 33 34 35 37 36 32 35 33 32 31 34 37 39 43 45 47 53 58 60 62 65 69
48 48 50 51 52 53 54 56 57 59 60 61 63 68 70 73 79 77 65 56 48 41 36 34 34 33 35 36 36 37 37 37 37 38 39 39 37 37 39 37 33 36 37 38 36 38 40 42 44 48 51 51 51 58
48 49 51 52 52 53 53 54 56 59 60 63 66 69 71 74 77 65 56 49 44 38 35 34 35 39 40 37 33 30 27 24 24 24 23 22 23 24 25 25 27 29 30 31 30 32 34 36 37 38 39 41 41 45
48 49 50 51 52 52 52 53 56 59 63 65 66 68 71 74 71 59 51 44 42 38 35 35 38 40 34 27 22 18 15 13 11 10 9 8 8 9 9 9 12 15 17 19 19 19 21 25 25 25 24 24 22 20
51 51 51 51 52 54 54 56 58 61 64 66 67 68 71 73 66 56 48 41 39 36 35 36 38 34 26 19 13 7 7 9 11 9 10 12 12 11 9 9 10 10 10 8 8 9 12 15 18 18 15 14 14 15
53 52 52 52 54 56 57 57 59 63 64 66 68 70 73 73 64 54 45 41 37 35 34 34 37 28 17 10 6 10 17 18 18 17 16 15 18 22 23 21 22 16 13 9 8 8 7 6 8 10 9 9 10 12
57 56 54 53 55 57 59 59 61 62 65 67 70 73 72 70 62 52 44 38 33 31 30 31 32 21 7 3 10 17 19 19 20 17 16 14 13 15 15 24 23 18 13 10 10 8 5 4 4 2 2 2 4 6
62 60 58 58 58 59 61 61 62 64 67 70 72 71 69 66 57 50 41 35 32 29 27 27 26 13 2 11 15 20 22 17 16 12 14 18 22 23 17 11 14 12 12 11 10 9 9 10 7 10 9 6 6 2
64 63 63 62 62 63 63 64 65 67 70 72 71 69 65 61 54 47 38 34 31 27 23 23 21 4 6 14 22 20 16 13 14 16 14 16 15 6 12 10 11 16 18 21 22 20 17 19 17 12 12 11 6 9
67 66 64 63 64 64 65 67 69 70 71 70 69 65 62 54 51 44 36 33 28 24 21 19 13 12 19 22 21 17 15 14 12 13 9 7 9 9 12 12 19 23 24 26 28 23 18 18 19 17 16 16 17 14
68 66 65 66 66 67 69 71 71 71 69 66 64 60 57 50 47 40 33 31 26 21 18 15 10 19 25 23 18 14 13 6 6 5 3 1 8 10 13 13 18 23 29 28 23 13 11 14 18 21 14 13 17 17
69 68 68 70 71 72 72 69 67 67 62 60 58 56 50 47 42 37 32 30 24 19 16 12 18 26 30 24 20 17 11 6 8 2 6 7 11 14 11 14 18 17 23 20 17 2 3 14 14 23 27 23 22 25
74 73 72 73 72 70 68 66 66 61 57 55 53 48 45 43 38 34 31 28 21 16 15 12 20 28 33 27 19 21 15 9 10 7 11 14 14 8 10 12 12 9 11 11 12 4 11 12 20 28 25 26 27 31
76 75 75 73 70 69 65 64 60 57 53 51 48 42 42 37 33 34 32 25 19 17 15 15 23 30 36 31 21 19 17 13 10 8 13 12 12 10 5 7 8 12 9 11 10 11 10 18 24 24 26 24 28 32
76 74 72 71 68 65 64 57 53 52 49 46 41 39 37 33 31 34 32 22 19 17 16 17 26 34 41 35 27 21 17 17 14 12 17 11 13 7 4 6 5 4 7 10 8 3 6 19 24 26 24 17 29 27
65 64 63 62 58 53 49 49 49 47 44 41 38 37 35 31 31 34 30 21 19 16 17 20 29 37 42 37 30 25 19 21 19 16 17 14 17 15 10 11 9 6 10 11 6 8 4 20 24 28 26 25 27 28
49 50 49 48 47 46 45 45 44 44 42 39 38 36 34 32 32 33 28 20 19 18 20 23 26 44 44 39 36 29 24 24 23 21 18 19 21 16 15 13 15 11 10 10 9 7 5 16 23 25 21 21 18 29
46 45 45 44 43 42 43 44 44 42 40 39 37 37 35 34 33 31 25 21 21 19 24 25 31 43 47 41 36 33 31 27 24 27 23 19 20 23 22 21 20 20 13 13 14 12 10 16 20 19 14 17 13 22
44 44 43 44 47 47 47 46 43 41 40 39 39 39 37 34 32 28 23 24 22 20 26 28 30 41 41 50 42 36 34 32 27 23 25 24 22 22 21 24 25 24 23 17 18 21 19 18 23 24 20 22 23 22
49 48 49 50 50 49 47 45 44 42 42 43 43 41 36 33 30 25 23 24 19 20 28 28 27 32 41 44 44 42 35 32 25 20 20 24 23 24 21 19 21 24 28 28 25 25 28 28 27 28 28 29 28 26
47 47 50 50 49 48 47 48 47 47 47 44 41 38 33 28 24 22 22 21 19 26 28 27 25 32 37 36 38 40 38 33 30 22 21 23 22 20 21 19 18 17 18 18 17 19 21 27 34 37 37 34 35 36
51 53 52 50 47 45 45 44 43 41 37 35 32 29 24 22 21 21 23 23 26 29 28 26 24 33 39 36 33 34 31 30 28 22 19 20 20 20 21 21 21 23 24 24 24 24 24 25 26 28 32 38 45 48
31 31 32 32 32 32 31 30 27 25 24 23 21 19 20 20 19 20 22 24 27 28 26 24 23 33 37 36 32 28 27 24 23 23 20 21 21 22 23 23 24 25 27 28 29 30 30 32 34 35 36 38 40 42
26 26 27 26 25 24 21 19 17 16 15 15 16 16 16 17 18 19 21 22 23 24 21 22 22 28 37 36 29 28 24 24 23 23 24 24 24 26 27 28 29 30 31 33 34 35 37 39 40 41 44 45 46 48
22 21 19 17 17 17 15 15 15 15 15 15 16 16 17 17 18 18 18 18 18 18 18 19 18 24 35 37 30 27 25 25 21 20 21 22 25 27 30 32 34 37 40 42 43 45 47 49 50 51 52 54 55 55
18 17 17 17 16 16 17 17 19 19 20 21 21 20 18 17 15 14 15 14 15 16 18 20 24 27 30 34 33 27 21 20 21 22 24 26 28 32 34 36 39 42 45 47 50 52 54 54 53 52 51 51 52 53
19 19 18 19 20 22 25 26 27 27 27 24 22 20 19 18 17 18 17 18 20 21 21 20 20 20 18 19 21 20 20 21 21 23 26 30 34 36 39 43 47 50 52 52 51 50 49 49 48 48 46 45 45 46
21 21 22 25 30 33 34 33 31 27 24 23 22 21 19 17 17 17 17 16 15 14 13 12 11 10 12 13 16 18 21 22 25 28 31 35 39 42 45 46 47 50 50 50 51 50 48 45 43 41 39 38 38 37
Wind_Direction
255 259 265 269 272 275 279 283 286 288 291 292 293 294 295 295 295 295 297 298 296 295 294 292 290 288 285 282 280 277 274 273 270 268 269 269 266 264 262 262 263 263 263 263 264 264 263 261 257 256 258 258 258 260
262 266 270 273 275 278 281 285 286 289 291 292 294 294 295 296 297 300 299 297 298 296 296 295 292 288 286 284 280 276 274 272 272 270 268 266 265 265 265 263 262 263 262 262 262 262 260 257 256 256 255 254 253 254
266 269 271 274 277 280 284 286 288 290 290 293 294 297 299 300 301 300 300 302 302 302 300 296 292 292 289 284 280 277 275 275 272 270 269 267 267 266 265 264 264 263 263 262 259 259 257 256 253 254 255 254 254 255
267 270 273 275 278 281 284 285 287 290 292 294 297 300 301 302 303 304 305 306 307 304 301 298 295 294 292 287 280 275 275 274 273 272 270 269 268 268 267 266 264 262 259 258 259 258 260 259 258 256 255 256 254 251
268 271 273 275 277 279 284 288 289 292 294 298 299 301 303 306 307 308 310 312 309 306 305 305 301 301 298 294 288 281 277 275 274 271 269 268 270 275 269 263 262 262 265 263 261 260 256 254 254 256 258 257 257 256
270 272 275 277 281 284 287 290 291 295 296 298 301 304 308 310 311 313 315 314 313 312 309 308 307 303 300 298 294 289 284 279 277 275 273 273 273 273 273 273 275 278 270 262 259 258 261 259 257 258 257 258 258 259
273 276 278 281 283 286 288 291 293 295 297 301 304 309 312 314 317 318 318 318 318 318 315 312 309 308 306 302 298 293 287 283 279 276 274 272 272 268 267 270 269 266 269 270 269 266 265 263 262 261 263 262 258 258
274 276 279 281 284 287 290 292 294 296 300 304 308 311 315 317 321 320 319 319 320 318 315 314 315 314 310 307 301 296 293 288 282 282 279 276 272 271 270 269 269 270 271 272 271 267 266 265 263 264 264 264 262 261
275 277 279 282 285 289 291 293 295 299 302 306 310 314 318 322 324 321 318 315 318 316 315 318 320 321 318 314 311 307 299 296 292 288 285 284 281 284 296 295 288 289 289 285 278 272 266 263 264 263 261 262 263 260
275 277 281 285 288 290 292 294 298 301 304 309 313 317 322 324 325 322 317 311 313 316 319 323 328 330 328 326 327 341 21 46 43 66 76 68 62 53 35 0 333 320 312 320 320 291 275 265 255 255 253 248 250 252
275 278 282 285 289 291 294 298 300 303 308 310 315 319 322 324 324 322 316 312 307 311 318 323 333 332 331 339 34 77 84 84 85 86 84 79 67 52 32 20 11 2 2 6 10 9 344 312 267 252 245 238 247 257
273 276 280 283 287 289 293 297 300 304 307 311 314 318 321 322 321 320 319 315 307 306 314 323 332 326 329 84 103 106 99 97 95 96 90 80 66 62 54 27 9 356 2 10 19 28 26 73 75 92 125 154 238 253
276 279 283 285 287 290 293 297 301 305 307 310 313 316 318 319 317 318 318 317 309 305 308 316 325 311 193 148 135 121 125 123 115 109 92 78 50 21 21 14 3 13 31 28 32 41 52 70 92 99 94 93 125 123
274 278 282 285 287 290 293 297 299 301 305 307 311 314 315 316 314 315 316 316 311 304 302 309 314 269 168 163 142 152 142 138 140 113 85 86 30 329 352 7 49 68 72 70 61 57 59 54 59 83 68 64 87 52
269 274 277 281 284 287 290 294 296 299 301 304 308 311 312 312 311 312 314 314 310 302 295 302 300 187 168 172 162 161 161 169 167 142 119 130 70 49 50 67 91 84 79 69 55 52 54 55 64 66 69 73 72 54
269 273 276 280 283 286 289 291 293 296 299 303 305 307 309 308 308 310 309 312 306 300 292 294 253 195 173 179 170 173 199 178 137 140 141 154 63 75 52 93 97 97 92 74 50 337 42 78 96 85 77 76 78 68
271 273 276 277 280 282 284 288 291 295 299 299 302 304 304 306 305 306 306 309 302 292 281 275 215 187 173 173 169 187 191 145 187 111 120 102 95 93 86 106 112 114 103 90 100 85 73 132 109 103 107 104 96 94
268 271 274 276 279 281 283 285 289 292 294 296 299 300 301 303 303 303 307 305 293 281 271 260 208 194 182 169 178 199 204 215 194 139 132 126 109 88 87 109 127 122 136 105 130 122 103 130 119 117 107 102 100 104
268 270 273 274 276 277 281 283 286 289 290 293 296 294 300 300 298 301 307 297 278 268 268 247 208 189 185 177 178 200 214 198 198 173 148 144 134 129 118 121 139 151 158 124 93 120 132 130 136 133 121 115 118 109
267 268 268 270 272 274 277 279 282 285 287 291 290 292 299 297 297 301 306 289 266 262 265 236 207 197 186 175 181 197 210 189 198 182 172 152 161 142 200 172 142 150 177 128 99 121 113 141 145 146 132 133 147 144
264 265 266 268 269 269 271 276 278 281 285 286 283 290 299 294 295 299 302 277 257 256 249 228 208 200 181 180 185 191 205 196 196 190 194 178 178 181 218 248 228 235 198 208 170 160 170 159 152 160 151 150 168 171
261 261 262 264 265 268 270 271 275 279 281 279 280 288 296 293 293 294 292 264 250 256 240 225 210 194 185 190 185 197 204 206 210 208 213 204 191 203 223 217 249 239 228 204 203 190 153 162 168 165 173 161 181 195
258 260 261 263 263 264 266 271 276 276 275 276 279 287 294 293 290 287 280 251 245 249 226 219 209 206 199 191 191 200 208 217 220 206 209 216 221 214 215 224 235 252 262 229 224 221 212 187 187 184 192 201 224 218
258 259 258 259 263 266 268 271 272 270 272 275 280 288 289 288 284 280 262 242 242 243 222 216 210 208 204 197 197 204 211 222 229 235 231 222 224 234 234 233 238 246 259 260 240 232 231 227 218 223 227 222 228 229
257 258 258 259 261 263 264 265 266 267 271 276 282 283 282 279 274 266 245 238 243 226 217 215 213 214 215 203 206 211 215 221 228 247 237 226 233 239 245 243 243 245 248 253 257 250 243 238 235 229 232 237 241 242
254 254 256 257 259 261 263 266 269 271 272 273 275 275 271 267 258 244 233 231 220 208 215 217 214 206 211 211 208 213 219 225 232 239 234 229 238 248 249 250 249 252 257 260 264 259 255 248 243 238 237 240 240 237
253 254 258 261 265 266 267 266 265 265 266 265 262 258 254 246 235 226 222 219 207 205 211 214 214 209 210 209 206 214 221 223 231 230 230 234 240 245 248 253 254 255 258 257 257 259 262 263 259 253 250 248 243 240
249 248 251 250 249 248 250 252 253 251 247 242 241 236 227 221 218 214 211 205 201 203 209 214 218 211 209 207 209 213 223 225 228 227 236 241 245 251 256 259 260 262 266 266 264 263 264 266 263 260 257 256 254 252
232 232 232 233 235 234 233 235 233 227 223 216 209 207 205 202 200 196 194 196 200 203 213 216 217 209 207 208 209 216 226 235 236 232 236 243 246 253 258 263 266 267 270 271 270 269 269 269 269 269 269 268 266 266
215 219 216 213 211 209 205 203 202 191 181 177 176 174 173 171 172 176 186 195 202 204 204 206 201 194 202 208 212 219 229 234 241 249 250 254 260 266 270 271 271 273 275 276 277 276 276 275 274 273 273 273 272 270
184 187 187 183 181 179 173 163 157 156 155 154 150 150 155 160 166 172 175 180 184 184 182 179 180 185 197 207 217 231 239 242 249 255 257 261 265 268 272 278 283 284 283 282 282 283 283 283 281 279 278 277 277 277
158 156 160 159 155 151 147 146 146 147 147 147 148 151 150 154 156 158 155 149 143 151 163 171 180 190 199 208 216 225 239 251 260 266 269 272 276 278 279 282 285 287 289 288 286 286 286 286 286 286 285 283 281 280
140 142 144 143 143 142 142 145 147 145 144 143 143 144 146 139 135 128 128 133 138 146 155 168 181 194 209 222 234 246 256 264 269 275 278 279 281 285 289 292 293 292 291 293 296 297 296 294 292 290 288 286 284 283
Height
10809 10810 10811 10811 10811 10811 10810 10809 10807 10805 10803 10800 10796 10792 10787 10782 10776 10769 10760 10756 10749 10739 10728 10723 10712 10703 10696 10688 10690 10684 10681 10682 10680 10687 10682 10682 10687 10683 10684 10688 10684 10681 10683 10685 10690 10693 10704 10704 10710 10704 10709 10723 10725 10723
10800 10801 10801 10801 10800 10800 10799 10798 10795 10793 10789 10785 10781 10776 10771 10765 10758 10751 10743 10731 10724 10713 10703 10689 10674 10666 10659 10653 10652 10648 10645 10645 10647 10649 10650 10649 10648 10649 10654 10657 10644 10657 10650 10656 10661 10663 10670 10670 10676 10678 10684 10691 10696 10698
10790 10790 10790 10789 10789 10788 10787 10785 10782 10779 10775 10771 10766 10760 10754 10747 10739 10731 10722 10711 10697 10683 10669 10656 10643 10635 10630 10626 10623 10620 10619 10619 10618 10621 10621 10623 10622 10621 10623 10626 10622 10628 10623 10629 10630 10631 10635 10638 10647 10648 10653 10666 10670 10674
10778 10778 10777 10777 10776 10776 10775 10772 10769 10765 10761 10756 10751 10745 10737 10729 10719 10709 10699 10685 10669 10654 10643 10635 10621 10616 10609 10603 10601 10600 10600 10600 10597 10600 10600 10600 10601 10600 10601 10602 10601 10597 10598 10599 10604 10609 10612 10617 10622 10625 10633 10633 10638 10645
10765 10765 10765 10764 10764 10763 10762 10759 10755 10752 10747 10742 10736 10729 10721 10712 10700 10687 10675 10659 10646 10635 10624 10616 10608 10603 10595 10591 10588 10587 10585 10584 10583 10584 10584 10583 10584 10586 10583 10579 10579 10577 10585 10588 10589 10588 10589 10591 10595 10598 10605 10609 10612 10617
10753 10753 10752 10752 10751 10750 10749 10745 10741 10737 10732 10726 10721 10714 10706 10695 10681 10666 10655 10641 10629 10620 10611 10604 10599 10592 10588 10583 10580 10577 10575 10574 10572 10572 10571 10571 10571 10574 10570 10569 10570 10571 10569 10570 10572 10571 10573 10577 10578 10578 10584 10589 10592 10592
10740 10739 10739 10738 10738 10737 10735 10730 10727 10722 10717 10712 10706 10698 10689 10678 10664 10650 10637 10626 10618 10609 10601 10595 10589 10585 10579 10574 10570 10566 10563 10560 10559 10558 10557 10557 10559 10559 10558 10558 10561 10558 10557 10557 10561 10560 10560 10560 10564 10563 10563 10567 10572 10570
10726 10726 10725 10725 10724 10723 10721 10717 10712 10707 10703 10698 10691 10683 10672 10662 10649 10636 10626 10617 10609 10602 10595 10589 10583 10576 10568 10562 10557 10552 10549 10548 10546 10546 10546 10547 10547 10547 10549 10550 10550 10549 10549 10548 10548 10547 10546 10547 10547 10548 10550 10550 10552 10552
10713 10713 10712 10712 10711 10709 10707 10703 10699 10694 10689 10683 10677 10668 10658 10646 10635 10624 10615 10608 10601 10595 10589 10583 10575 10567 10559 10552 10547 10545 10543 10542 10541 10541 10541 10542 10542 10543 10545 10545 10544 10543 10542 10540 10538 10537 10537 10536 10537 10537 10538 10539 10541 10542
10699 10700 10699 10699 10697 10695 10693 10689 10686 10680 10674 10668 10662 10653 10644 10634 10623 10613 10605 10600 10594 10588 10582 10576 10569 10561 10554 10549 10546 10544 10542 10541 10541 10541 10541 10542 10543 10544 10544 10543 10542 10540 10537 10536 10533 10532 10530 10529 10530 10531 10532 10534 10535 10535
10685 10686 10686 10686 10684 10681 10678 10676 10671 10666 10660 10654 10648 10640 10630 10620 10612 10604 10597 10591 10586 10581 10577 10571 10565 10557 10552 10550 10547 10546 10544 10544 10544 10544 10545 10546 10546 10546 10547 10546 10544 10541 10538 10536 10533 10530 10529 10527 10527 10528 10530 10531 10531 10532
10671 10672 10673 10673 10670 10668 10665 10662 10658 10653 10647 10641 10635 10628 10619 10610 10601 10595 10588 10582 10577 10574 10571 10567 10561 10556 10553 10552 10550 10549 10549 10549 10549 10549 10548 10548 10548 10546 10546 10543 10542 10541 10538 10536 10534 10532 10531 10529 10529 10529 10530 10531 10531 10532
10653 10656 10658 10658 10657 10654 10651 10648 10644 10640 10634 10628 10623 10616 10608 10600 10592 10586 10581 10576 10570 10567 10565 10562 10558 10555 10553 10552 10551 10551 10551 10550 10551 10551 10550 10551 10552 10551 10546 10544 10544 10541 10539 10538 10536 10534 10533 10532 10531 10532 10533 10534 10534 10534
10640 10641 10642 10642 10641 10639 10637 10634 10631 10627 10622 10617 10611 10605 10598 10590 10583 10578 10573 10569 10564 10561 10559 10557 10554 10554 10554 10553 10552 10552 10553 10554 10553 10552 10551 10551 10550 10552 10550 10548 10544 10542 10542 10541 10540 10539 10537 10535 10534 10535 10534 10535 10536 10535
10625 10627 10628 10627 10627 10625 10623 10620 10618 10614 10610 10605 10599 10593 10587 10581 10574 10569 10565 10561 10557 10555 10553 10552 10551 10551 10552 10553 10552 10554 10554 10553 10554 10553 10553 10553 10553 10553 10551 10549 10547 10546 10546 10546 10545 10544 10543 10541 10539 10538 10537 10538 10537 10538
10610 10612 10613 10613 10611 10610 10609 10606 10604 10601 10597 10592 10587 10582 10576 10571 10566 10561 10557 10554 10551 10549 10547 10547 10547 10547 10550 10552 10552 10554 10554 10555 10555 10556 10556 10555 10555 10554 10553 10552 10552 10550 10548 10546 10544 10547 10547 10545 10543 10541 10542 10542 10541 10541
10592 10595 10597 10597 10596 10596 10593 10592 10589 10587 10584 10580 10575 10570 10566 10562 10557 10553 10550 10546 10544 10542 10541 10542 10543 10544 10547 10551 10553 10553 10554 10556 10556 10557 10557 10558 10557 10556 10555 10554 10554 10553 10552 10550 10551 10549 10551 10550 10548 10546 10546 10548 10547 10547
10576 10578 10579 10578 10579 10579 10578 10576 10575 10573 10571 10567 10564 10560 10556 10552 10548 10544 10542 10539 10537 10536 10535 10537 10540 10542 10546 10548 10550 10552 10553 10555 10555 10556 10557 10558 10558 10558 10558 10557 10557 10556 10556 10554 10551 10553 10553 10554 10554 10553 10555 10555 10555 10554
10557 10560 10560 10560 10561 10562 10562 10561 10560 10559 10558 10555 10552 10549 10546 10542 10539 10536 10534 10532 10530 10530 10530 10532 10535 10537 10541 10545 10548 10549 10551 10553 10554 10557 10557 10558 10558 10559 10558 10558 10557 10559 10559 10558 10557 10556 10555 10555 10557 10559 10561 10562 10563 10563
10537 10539 10540 10541 10543 10545 10546 10546 10546 10545 10544 10543 10541 10539 10536 10533 10530 10527 10525 10524 10524 10523 10524 10526 10529 10531 10536 10540 10545 10547 10548 10551 10553 10555 10556 10558 10559 10559 10557 10558 10559 10560 10560 10559 10559 10558 10558 10559 10560 10562 10563 10566 10566 10568
10516 10519 10522 10524 10527 10529 10530 10531 10531 10531 10532 10530 10530 10528 10526 10524 10521 10518 10517 10516 10517 10517 10518 10520 10522 10526 10532 10536 10540 10543 10545 10548 10551 10553 10554 10556 10557 10558 10557 10557 10559 10558 10558 10559 10559 10559 10560 10560 10561 10563 10564 10565 10568 10568
10500 10503 10506 10509 10512 10514 10516 10516 10517 10518 10518 10518 10518 10518 10516 10514 10512 10510 10508 10508 10509 10510 10511 10514 10519 10524 10527 10532 10535 10539 10542 10544 10547 10550 10552 10553 10553 10556 10556 10557 10556 10557 10558 10558 10560 10561 10561 10562 10562 10564 10565 10566 10567 10567
10486 10489 10492 10495 10497 10499 10501 10502 10503 10504 10504 10505 10506 10506 10505 10503 10501 10500 10499 10500 10501 10503 10504 10508 10513 10517 10522 10527 10531 10535 10537 10539 10542 10545 10548 10549 10550 10552 10553 10554 10555 10556 10557 10559 10559 10560 10561 10561 10562 10563 10564 10565 10565 10564
10472 10476 10479 10481 10482 10484 10486 10488 10489 10491 10491 10492 10494 10494 10493 10492 10490 10490 10490 10491 10493 10496 10499 10503 10508 10513 10518 10522 10526 10530 10534 10535 10539 10541 10543 10544 10546 10548 10549 10551 10552 10552 10553 10555 10556 10557 10557 10558 10558 10558 10559 10561 10562 10563
10457 10461 10463 10464 10467 10469 10472 10474 10475 10477 10478 10480 10481 10480 10480 10480 10480 10480 10482 10484 10487 10490 10493 10498 10502 10506 10512 10517 10521 10525 10529 10532 10535 10537 10538 10541 10542 10544 10545 10547 10547 10547 10548 10549 10550 10551 10551 10553 10553 10554 10554 10555 10556 10557
10440 10444 10444 10447 10450 10454 10457 10458 10461 10462 10464 10466 10468 10467 10468 10469 10471 10473 10475 10478 10480 10484 10488 10493 10497 10501 10506 10511 10516 10521 10524 10528 10530 10533 10534 10536 10538 10539 10540 10541 10542 10542 10543 10543 10543 10544 10544 10544 10545 10547 10548 10548 10548 10548
10423 10426 10429 10433 10437 10440 10442 10444 10445 10447 10449 10452 10453 10454 10457 10460 10463 10465 10468 10470 10474 10479 10484 10489 10492 10496 10501 10507 10512 10516 10521 10524 10526 10529 10531 10532 10533 10534 10535 10536 10536 10537 10537 10537 10537 10537 10536 10536 10536 10536 10535 10536 10537 10538
10409 10412 10417 10420 10423 10427 10429 10431 10433 10436 10438 10441 10444 10447 10450 10453 10456 10459 10462 10467 10471 10476 10481 10485 10489 10492 10498 10504 10509 10514 10516 10519 10522 10525 10526 10528 10529 10529 10530 10530 10529 10529 10529 10528 10528 10528 10528 10527 10527 10526 10525 10525 10525 10524
10400 10404 10407 10411 10414 10417 10421 10424 10427 10430 10433 10437 10440 10443 10446 10450 10453 10456 10461 10466 10470 10475 10478 10481 10485 10489 10496 10503 10507 10510 10513 10516 10518 10518 10520 10521 10522 10523 10523 10523 10522 10522 10521 10519 10519 10518 10516 10515 10514 10513 10510 10509 10509 10507
10394 10398 10402 10407 10410 10414 10418 10421 10425 10428 10431 10435 10438 10442 10446 10450 10453 10458 10462 10465 10469 10472 10476 10479 10483 10488 10494 10499 10503 10505 10508 10511 10514 10516 10516 10517 10517 10517 10516 10515 10514 10512 10509 10507 10506 10504 10501 10499 10497 10495 10493 10491 10488 10488
10392 10396 10401 10404 10409 10413 10417 10421 10425 10429 10432 10436 10440 10444 10448 10452 10455 10459 10462 10464 10467 10470 10474 10477 10481 10485 10490 10495 10500 10504 10507 10509 10510 10510 10511 10511 10510 10509 10508 10506 10504 10501 10497 10494 10490 10486 10482 10477 10475 10474 10472 10470 10468 10466
10393 10397 10403 10406 10410 10415 10419 10423 10427 10431 10435 10439 10444 10448 10451 10455 10458 10461 10464 10467 10470 10473 10477 10480 10484 10489 10493 10497 10499 10502 10504 10505 10505 10506 10505 10504 10503 10501 10498 10494 10491 10487 10481 10475 10471 10467 10464 10461 10458 10454 10452 10450 10448 10446
10398 10402 10406 10410 10414 10418 10424 10428 10432 10436 10441 10445 10449 10452 10456 10460 10464 10467 10470 10474 10477 10479 10482 10485 10488 10491 10494 10496 10498 10499 10500 10500 10500 10499 10497 10495 10492 10490 10486 10481 10476 10470 10464 10459 10454 10450 10446 10442 10439 10436 10433 10431 10429 10427